Vorticity
4 4 3 3 5 3 2 2 1 4 5 4 5 4 5 5 4 3 2 3 3 3 4 4 5 6 8 8 7 7 7 6 5 5 5 4 5 7 8 9 8 8 7 6 6 5 5 5 5 4 4 5 6 6 6 7 6 7 7 7 7 7 8 7 8 9 9 6 4 4 5 5 3 4 7 10 14 14 13 12 10 8 8 8 7 6 7 8 7 7 7 6 6 7 7 8 7
3 3 3 2 3 3 3 3 2 4 4 4 5 4 5 4 4 3 4 5 5 5 6 8 8 9 9 8 7 7 6 5 5 5 6 6 8 9 9 8 6 6 5 5 5 5 5 4 4 5 6 6 7 7 7 8 9 10 10 10 10 9 9 8 7 7 8 6 5 5 5 4 2 4 7 9 10 13 12 12 12 9 8 7 6 6 8 8 5 6 8 6 6 7 6 7 10
7 5 5 4 3 3 3 4 3 5 6 6 6 6 7 6 4 5 5 5 6 7 7 9 9 8 7 6 6 5 5 5 5 6 8 9 9 8 7 6 5 5 4 5 5 5 4 4 5 6 7 7 7 7 7 8 8 8 9 9 9 9 10 9 9 8 7 6 6 6 7 5 5 6 6 4 4 8 9 10 13 9 7 7 7 7 7 5 4 5 6 7 6 7 7 6 7
9 9 9 8 7 6 5 4 3 3 4 6 7 7 7 6 6 6 6 6 7 8 8 8 8 7 6 6 5 5 5 5 6 8 9 9 8 6 6 5 5 5 5 5 4 4 4 5 6 6 7 7 6 6 6 6 7 7 7 7 6 6 6 7 8 8 8 8 8 7 7 7 8 6 3 5 8 11 10 7 9 9 8 9 9 8 7 7 7 9 8 8 8 5 7 8 6
8 8 9 9 9 8 7 7 6 6 6 7 7 7 6 6 6 6 7 7 8 8 8 7 6 6 6 5 5 5 5 6 7 8 8 7 6 5 6 5 5 5 5 4 4 4 4 5 5 5 5 5 5 4 5 4 5 5 5 5 5 5 4 5 5 5 6 6 8 8 8 7 9 7 5 8 9 12 11 7 10 10 6 6 7 7 6 7 7 6 8 7 8 8 7 8 7
7 7 8 8 8 8 8 8 8 9 9 8 7 6 5 5 5 6 7 7 7 7 7 6 6 5 5 5 5 5 7 8 8 8 8 7 6 6 7 6 6 5 4 4 4 4 4 5 4 4 4 4 4 4 4 4 4 4 4 4 5 5 5 6 6 7 7 7 7 8 9 7 8 8 8 10 9 9 7 7 11 12 9 8 6 8 6 5 8 5 7 9 9 8 4 3 5
7 7 7 7 8 8 7 8 8 8 8 7 6 5 5 6 6 7 7 7 6 6 5 5 5 5 5 5 6 8 8 8 7 7 7 7 6 6 7 6 5 5 5 5 4 5 4 5 5 5 4 3 4 5 4 4 4 4 4 4 5 5 5 6 6 7 8 9 8 8 8 7 8 8 10 12 11 5 1 4 6 6 8 14 10 7 7 4 8 8 6 7 7 11 8 5 3
5 5 6 6 7 7 7 7 7 6 6 5 5 6 6 7 7 7 6 6 6 5 5 4 5 5 7 7 8 8 7 6 6 6 6 6 6 5 6 5 5 5 5 5 4 4 4 4 5 4 3 4 5 4 3 4 4 4 4 4 5 5 5 6 6 6 6 7 6 7 7 7 7 8 11 9 10 5 7 6 1 11 2 0 9 5 7 2 -1 1 3 4 3 7 7 8 7
6 5 6 6 6 6 6 5 5 5 5 5 5 6 6 7 7 6 5 5 6 5 5 5 7 8 8 8 7 6 6 6 5 5 6 6 6 6 6 6 5 5 5 4 4 4 4 4 3 3 4 5 4 3 4 4 4 4 4 4 5 5 6 6 6 6 5 6 5 6 5 7 6 7 11 9 11 8 15 7 -3 29 17 -9 5 10 13 17 13 4 1 4 4 6 3 4 8
8 7 7 6 5 5 4 4 4 4 4 5 5 5 6 6 5 5 4 5 5 6 6 7 8 8 7 6 6 6 5 5 5 5 6 6 6 6 6 6 6 5 5 4 4 4 4 3 3 3 4 5 4 4 4 5 5 4 4 4 5 5 5 5 5 5 5 6 5 6 5 6 7 7 9 8 12 9 14 14 0 23 18 -12 -8 -1 2 11 23 20 12 9 1 2 6 6 4
7 7 6 5 4 3 3 4 4 4 5 6 6 6 7 6 5 5 5 6 7 8 9 8 7 7 7 6 6 6 6 6 6 6 5 6 6 6 6 6 5 4 4 4 5 4 4 3 3 4 4 5 5 4 5 5 5 4 5 4 5 5 5 5 5 5 4 6 4 5 6 6 8 6 8 6 9 9 9 14 9 9 6 -4 -6 -1 -2 -7 2 10 19 26 13 3 10 17 15
6 6 5 4 4 4 4 4 5 6 6 7 7 7 7 6 6 6 7 8 8 8 8 8 7 7 7 6 6 6 6 6 6 6 6 6 6 6 6 5 5 5 5 5 5 4 4 5 4 5 4 5 6 6 5 5 5 5 5 4 5 5 5 5 5 5 4 5 5 6 6 5 6 4 6 6 6 9 9 10 11 10 9 10 5 6 10 4 1 -7 -4 16 24 18 15 21 24
6 5 4 4 4 4 4 4 5 6 7 7 7 7 6 6 6 7 8 8 8 7 7 7 7 7 7 6 7 6 5 5 5 5 6 6 6 6 6 6 6 6 6 6 5 5 5 5 5 6 5 6 6 6 6 6 6 5 5 4 5 5 5 5 5 5 5 5 6 5 6 5 6 7 7 8 7 6 9 10 11 14 15 15 8 5 6 8 13 4 -4 -1 6 10 9 13 19
6 5 5 4 5 5 5 6 6 7 8 8 7 6 6 7 7 8 8 8 8 8 7 7 7 7 7 7 6 6 6 6 6 6 6 6 6 7 7 7 7 7 7 7 6 6 6 6 6 7 7 7 7 6 7 6 6 6 6 6 6 6 5 5 5 5 5 5 6 5 6 7 6 8 8 8 8 6 7 9 12 13 13 11 8 7 4 1 7 7 3 2 -0 1 8 16 16
4 4 4 5 6 6 7 7 8 8 8 7 7 6 7 8 8 8 8 8 7 7 7 7 7 7 7 7 7 7 7 7 7 6 6 6 6 6 7 7 8 8 8 8 8 8 8 8 7 8 8 7 7 7 7 7 7 6 6 7 7 7 6 6 6 6 6 5 6 6 5 6 5 4 6 7 7 7 6 7 10 12 10 7 4 6 7 5 8 7 5 9 8 5 4 5 0
2 3 4 6 7 7 8 8 8 8 7 6 7 7 7 7 7 7 7 7 6 7 7 7 7 7 7 7 8 8 8 7 7 7 7 7 7 7 7 7 7 8 8 8 9 9 9 9 9 8 8 8 8 7 7 7 7 8 7 7 7 7 7 7 7 7 7 6 6 6 5 5 5 4 5 7 7 7 6 6 6 10 11 7 1 0 9 11 1 3 16 16 9 8 6 1 -5
4 5 6 7 7 7 8 8 7 6 5 5 6 7 6 7 7 6 6 6 7 7 7 7 7 7 8 8 8 8 8 8 7 8 8 8 8 8 9 8 7 7 8 9 9 9 8 9 9 8 8 8 8 8 7 7 7 8 8 7 7 7 7 7 7 7 6 7 6 6 7 6 6 6 4 4 5 7 7 7 5 6 9 9 8 4 8 11 2 9 29 28 19 17 14 11 8
6 4 8 8 5 5 5 6 6 5 5 5 6 7 7 7 7 6 6 7 7 7 8 8 8 8 8 8 7 8 8 9 9 8 7 7 8 7 8 8 8 7 7 8 8 8 8 8 8 8 8 8 8 8 7 6 6 6 7 7 6 7 7 7 6 7 6 7 6 5 6 7 7 7 6 5 5 7 7 7 6 5 5 6 8 8 8 9 11 15 11 8 19 27 29 29 27
5 7 19 13 5 5 5 5 5 6 6 6 7 7 7 7 6 6 6 7 7 7 8 8 8 7 7 7 7 8 8 9 9 8 7 7 7 7 7 7 7 7 7 7 7 7 7 7 7 7 7 7 7 7 7 6 6 5 6 7 6 6 7 7 6 6 7 7 7 6 5 4 5 6 6 6 5 6 7 8 8 7 6 5 4 5 8 8 10 8 -8 -17 -7 1 7 16 24
1 9 18 9 4 6 6 6 5 6 7 7 7 6 6 6 6 6 7 7 8 8 7 7 7 7 7 8 7 7 7 7 7 7 7 7 7 7 7 7 6 6 6 6 6 6 6 6 6 6 6 6 6 6 6 5 5 5 5 6 6 5 5 7 7 6 5 6 7 7 7 5 4 4 5 5 5 6 6 7 8 8 7 7 7 4 5 8 10 11 6 1 -2 -9 -19 -23 -15
-1 5 8 5 6 5 5 6 6 7 6 6 6 6 6 5 6 6 7 8 8 8 8 8 7 7 6 6 6 6 6 6 6 6 6 7 6 6 6 6 6 6 5 5 5 6 6 6 5 5 5 5 5 5 5 5 5 5 4 4 4 4 4 4 5 6 6 5 6 6 6 7 6 5 5 5 5 6 5 5 7 9 9 8 8 6 5 5 7 9 10 10 10 12 4 -9 -18
1 5 5 6 6 4 6 7 7 7 7 7 7 6 6 5 6 6 7 7 7 7 7 7 6 5 5 5 6 6 6 5 6 5 5 5 5 6 6 6 6 5 5 5 5 5 5 6 5 5 5 5 6 5 5 5 5 5 4 4 4 4 3 3 3 4 5 5 5 5 5 5 6 6 6 5 5 6 6 5 5 6 8 8 8 7 6 6 7 7 8 9 7 9 14 15 11
4 6 6 6 5 5 6 6 7 8 8 8 7 6 6 6 6 5 6 6 5 6 6 5 4 4 5 6 6 6 5 4 4 4 4 5 5 5 5 5 5 5 5 5 5 5 5 4 4 4 4 4 4 5 5 5 5 5 5 4 5 5 3 3 3 3 4 4 4 5 4 4 5 5 5 6 5 5 6 6 6 6 6 7 7 6 6 6 6 6 8 10 10 7 8 12 16
5 6 6 6 6 5 6 7 7 8 8 8 6 6 6 6 6 6 6 6 5 5 5 4 4 4 5 5 5 4 4 3 3 3 4 4 4 4 4 4 4 4 4 4 4 4 4 4 4 4 4 4 4 4 4 4 4 4 4 4 4 5 4 3 3 4 3 4 4 4 5 4 4 4 4 5 5 5 5 6 6 6 6 7 7 7 6 4 3 6 8 8 9 10 9 8 10
6 5 6 6 6 6 7 8 8 8 7 6 6 6 6 6 5 6 6 6 5 4 4 4 4 4 4 4 4 3 3 4 4 4 4 4 4 4 4 4 3 3 3 3 4 4 4 4 5 5 5 5 5 5 5 4 5 5 5 4 4 4 4 4 4 4 4 3 4 3 4 4 5 5 4 3 3 4 3 4 4 4 5 5 6 7 6 6 6 8 9 11 11 10 10 9 9
5 5 6 7 7 8 8 8 8 8 6 5 6 6 6 5 5 5 6 5 4 4 4 4 4 3 4 4 3 3 4 4 4 4 4 4 4 4 4 4 3 3 4 4 4 5 5 5 5 5 5 5 5 5 5 5 5 6 6 5 5 5 4 4 4 4 4 4 4 3 3 4 4 5 6 4 3 4 4 4 4 4 4 5 5 6 6 7 9 10 10 8 7 7 7 7 8
7 7 8 8 8 8 9 9 8 6 5 5 5 5 5 5 5 5 5 5 4 4 4 4 4 4 4 4 3 3 4 4 4 4 4 4 4 4 4 4 4 4 5 5 5 5 5 5 5 5 5 5 5 5 5 6 6 5 6 6 6 6 5 5 5 4 4 4 4 4 4 3 3 3 4 5 5 5 6 6 5 5 4 4 4 4 5 6 6 7 4 -1 0 6 8 6 6
8 8 8 8 8 9 9 8 8 6 5 5 5 5 5 5 6 5 4 5 5 4 4 4 4 4 4 3 4 4 4 4 5 4 4 4 4 4 4 5 5 5 6 5 5 5 5 5 5 5 5 5 4 5 5 5 5 5 5 5 5 5 5 6 5 5 5 5 5 4 4 4 4 4 3 4 4 4 4 4 5 5 4 4 4 4 5 6 5 5 4 2 4 8 10 9 8
8 8 8 8 8 8 8 7 6 5 4 5 6 6 6 6 6 5 5 5 5 5 5 5 4 4 4 4 4 4 5 5 5 5 4 5 5 5 5 5 5 5 5 5 5 5 4 4 4 4 4 5 4 4 4 4 4 4 4 4 5 5 5 5 6 6 6 5 5 5 5 5 4 4 4 4 4 4 4 4 4 4 4 4 4 4 4 6 5 4 3 3 6 10 10 10 12
8 9 8 8 9 8 8 7 6 5 5 5 5 6 5 5 5 5 6 5 5 4 4 5 4 5 5 5 5 5 5 5 5 5 5 5 5 5 5 5 5 5 5 5 5 4 4 4 4 5 4 5 5 5 5 5 5 5 5 5 4 4 4 4 5 5 6 6 6 6 6 6 6 5 5 6 5 5 4 4 4 3 4 4 4 3 3 4 3 4 5 4 8 11 8 7 8
8 7 8 9 8 8 8 7 6 5 5 5 5 5 5 5 6 5 5 4 4 4 5 5 5 5 5 5 6 5 6 5 5 5 5 5 6 6 5 5 5 5 4 4 4 4 4 4 4 5 5 5 5 5 5 5 6 5 6 6 5 5 5 4 4 4 5 5 5 5 5 4 4 5 4 5 5 6 6 6 6 5 5 4 4 3 3 3 1 6 11 8 8 6 2 3 3
7 6 7 8 8 8 7 6 5 4 4 4 4 4 4 5 5 4 4 4 5 5 6 6 6 6 6 6 6 6 6 6 6 6 6 6 5 5 5 5 5 4 4 4 5 5 5 5 5 6 6 6 6 6 7 7 7 7 8 8 8 8 9 8 8 8 7 8 7 7 7 6 5 4 4 3 2 3 4 5 5 6 6 6 6 5 5 5 3 5 5 1 3 4 2 3 2
7 6 6 7 8 8 7 6 4 3 3 3 3 3 4 4 4 4 5 6 6 6 6 6 6 6 6 6 6 6 6 6 6 6 6 5 5 5 4 5 5 5 5 5 6 7 7 7 8 8 9 9 9 9 9 9 9 8 8 8 8 9 9 9 9 10 10 9 10 10 10 10 10 9 8 7 5 4 3 3 3 3 4 5 6 6 6 6 6 6 5 3 3 5 4 3 4
7 7 8 8 9 8 7 6 5 4 4 4 4 4 4 5 5 6 6 6 6 6 6 6 6 6 6 6 6 5 5 5 5 5 5 5 5 5 5 5 6 6 7 8 8 9 9 10 10 10 9 9 9 8 8 8 7 7 7 7 7 7 7 7 8 8 9 9 9 9 9 10 10 11 11 10 10 9 7 6 6 5 4 4 4 5 6 7 7 6 6 5 3 2 2 3 5
9 9 10 10 9 8 7 6 5 5 4 4 4 5 6 7 7 7 7 7 7 6 6 6 6 6 6 6 5 5 5 5 5 5 5 5 5 6 7 8 8 9 9 10 10 10 10 9 9 8 8 8 7 7 7 7 8 8 8 8 8 9 9 9 9 8 8 9 9 9 9 9 9 9 9 9 10 10 10 9 8 8 7 7 6 6 6 7 8 8 8 6 5 4 1 2 4
9 10 9 8 8 7 6 6 5 5 5 5 6 7 7 8 8 8 7 7 6 6 6 6 6 5 5 5 5 5 5 5 5 6 6 7 8 8 9 9 9 10 9 9 9 8 7 7 7 8 8 9 9 9 9 9 9 9 9 9 9 10 10 9 9 9 9 8 8 8 8 8 8 8 8 8 8 8 8 8 8 8 7 7 6 7 6 7 7 8 10 10 10 9 6 6 5
8 8 8 8 7 6 7 7 7 7 7 7 8 8 8 8 7 6 6 6 6 6 6 6 5 5 5 5 5 5 5 6 7 8 9 9 10 10 9 9 9 8 7 7 7 7 7 8 8 9 9 9 9 9 9 9 9 9 9 9 9 9 8 8 8 7 7 7 7 7 7 7 7 7 7 8 8 8 8 7 7 6 6 7 6 6 5 5 6 6 8 10 11 11 10 9 8
9 8 8 8 7 8 8 8 8 8 8 8 8 8 7 7 6 6 6 6 7 6 6 6 6 6 5 5 6 7 8 8 9 10 10 10 9 9 8 8 7 7 7 7 8 8 8 9 9 9 9 9 8 8 8 8 8 8 8 8 8 7 7 7 7 7 6 6 7 7 7 7 7 7 7 7 7 8 8 8 9 8 7 6 6 6 5 4 4 4 5 6 9 10 11 12 11
9 9 8 8 8 9 8 8 8 8 8 8 8 7 7 6 6 6 7 6 6 6 6 6 6 6 6 7 8 9 9 10 10 10 9 8 8 7 7 7 7 7 8 8 8 9 8 9 9 8 8 7 7 7 6 7 7 7 7 7 8 8 8 8 7 8 8 8 8 8 8 8 8 8 8 9 9 9 9 9 9 10 10 9 8 7 6 6 5 4 4 3 4 6 8 11 12
8 8 8 7 7 7 7 7 7 7 7 7 8 8 7 7 7 7 7 7 6 6 6 6 6 7 8 9 9 9 10 10 9 8 8 7 7 7 7 7 8 8 8 9 9 9 8 8 7 6 6 6 6 6 7 7 8 8 8 8 9 9 9 9 9 10 9 9 10 9 9 9 9 10 10 10 10 10 10 10 10 11 11 11 11 10 9 8 7 6 6 5 4 3 3 5 7
6 6 6 6 6 6 7 7 7 8 8 7 7 7 7 6 7 7 6 6 5 5 6 7 8 9 9 10 10 10 10 9 8 7 7 7 8 8 8 8 8 8 8 8 8 7 7 6 6 6 7 7 8 8 8 8 8 8 8 8 8 8 8 9 9 10 10 10 10 10 10 10 10 10 10 9 9 10 9 9 10 10 10 11 11 12 12 11 10 9 8 8 7 5 4 4 4
6 6 6 6 7 7 8 8 7 7 8 8 8 8 8 7 6 6 6 6 6 7 8 9 10 11 11 11 10 10 9 8 7 8 8 9 9 9 9 8 8 8 7 7 7 6 7 7 7 8 8 8 8 8 8 8 8 8 8 9 9 9 9 9 9 9 10 11 11 11 11 10 10 10 9 9 8 8 8 7 7 7 7 7 8 8 9 9 10 10 10 9 8 8 6 6 6
7 7 7 7 7 8 9 8 8 8 8 8 8 7 7 7 6 5 6 7 8 10 11 12 12 11 10 9 9 8 7 8 9 9 9 9 9 8 8 8 7 7 7 7 7 7 8 8 8 8 8 8 9 9 9 9 10 10 11 11 12 12 12 12 12 11 11 11 11 11 11 11 10 10 10 9 9 8 7 7 7 7 6 6 6 5 5 6 6 7 8 8 8 8 8 7 7
8 8 8 8 8 9 8 8 9 9 8 7 6 5 5 7 7 7 9 10 11 13 12 12 10 8 8 9 9 9 9 10 10 9 9 8 7 7 7 7 7 7 7 7 8 8 8 9 9 9 10 10 10 10 10 11 12 13 13 13 13 13 13 12 12 12 11 10 10 10 9 9 9 9 8 8 8 7 7 7 6 6 6 5 6 6 6 6 5 5 5 6 7 8 8 7 6
8 9 9 9 9 9 9 8 7 7 6 6 5 5 6 7 9 11 13 12 13 13 10 9 8 8 9 10 10 10 10 9 8 7 7 7 7 7 7 8 8 8 8 8 8 8 9 9 9 9 9 10 11 12 13 14 14 14 13 13 12 11 10 10 10 9 9 8 8 8 7 7 7 7 7 7 7 6 6 6 6 5 5 5 5 5 5 5 6 6 6 5 5 6 7 7 6
9 9 9 9 9 8 7 6 6 6 6 5 6 8 10 11 12 12 12 12 11 9 7 7 8 10 11 10 9 9 7 7 7 7 7 7 7 7 7 7 8 8 8 8 8 8 9 9 9 10 11 12 14 15 14 13 12 11 9 8 8 7 6 6 7 6 6 7 7 7 7 7 7 7 7 7 7 8 8 8 8 8 8 8 8 7 6 5 5 6 7 8 7 6 6 6 7
9 9 9 8 7 7 6 6 6 6 7 8 11 13 13 12 12 11 11 10 8 6 8 9 10 10 9 8 7 6 6 7 7 7 7 7 7 7 8 8 8 8 8 8 9 9 10 11 12 13 14 15 14 13 11 9 7 6 6 5 5 5 5 6 7 8 9 9 10 11 12 13 13 13 13 14 14 14 16 16 16 16 16 16 16 16 15 14 12 10 9 9 10 10 10 8 8
8 8 7 7 7 7 7 7 8 9 11 14 15 14 12 10 10 10 9 7 7 9 10 10 9 9 8 7 7 7 7 7 7 7 7 7 8 8 7 7 7 7 8 9 10 11 12 13 14 14 14 12 10 8 7 5 5 4 4 5 6 7 8 9 10 12 13 14 16 18 20 22 23 24 24 24 24 23 24 26 26 26 26 26 25 24 24 23 23 21 19 17 16 15 16 15 14
8 8 8 7 8 8 8 10 11 12 13 14 14 13 10 8 9 10 9 9 10 11 9 8 8 8 8 8 7 7 7 7 7 7 7 7 7 7 8 8 9 9 10 11 12 13 14 14 14 13 11 8 7 6 5 4 4 5 6 7 8 9 9 11 12 14 17 20 22 24 26 27 28 29 29 28 28 26 24 25 26 27 28 28 28 27 27 25 25 25 24 24 23 22 22 22 23
8 8 8 9 9 9 10 11 12 14 14 14 12 10 9 10 11 11 10 9 9 8 7 8 9 9 8 8 7 8 8 8 8 7 7 7 7 8 9 9 10 11 11 12 13 14 14 13 11 9 8 6 5 5 5 5 6 6 7 8 9 10 11 13 15 19 23 25 25 25 24 22 21 21 21 20 21 20 19 18 18 18 18 19 20 21 22 22 22 21 21 20 21 21 21 21 23
9 8 8 8 8 9 11 13 14 15 13 12 10 9 10 11 11 10 9 9 8 8 8 9 9 9 8 7 7 7 7 7 7 7 7 8 8 9 9 9 10 11 12 13 14 14 12 10 8 7 6 5 5 5 6 6 7 7 7 8 10 11 13 17 21 24 25 24 21 18 16 14 13 12 11 11 12 12 12 11 10 10 10 10 10 11 12 13 14 15 16 16 16 15 15 15 15
9 8 8 9 11 14 16 16 14 12 10 10 10 10 12 11 10 9 9 9 8 8 8 9 9 8 6 6 7 7 7 6 6 6 7 8 8 8 9 10 11 12 13 14 14 12 10 8 7 7 7 6 6 7 6 7 7 7 7 9 11 14 17 21 24 24 21 18 15 13 11 11 9 9 8 8 8 8 8 9 8 8 9 9 9 8 8 8 8 8 10 11 12 13 13 12 11
9 11 13 14 16 16 15 12 11 10 10 10 10 10 11 11 10 9 8 8 7 7 8 9 8 7 6 7 8 7 6 6 6 7 8 8 8 9 10 10 11 12 14 14 13 10 8 8 7 7 7 6 6 6 6 6 6 6 8 11 14 17 21 23 22 19 16 13 12 10 9 8 7 8 10 13 16 18 20 21 22 22 22 22 21 20 18 16 13 10 8 7 7 8 9 10 11
13 15 16 16 15 14 12 10 10 10 10 10 9 8 9 8 8 7 7 7 7 7 9 9 8 7 6 7 6 5 5 5 7 8 8 8 8 9 10 11 12 14 14 13 10 7 7 7 7 6 5 4 4 4 4 5 5 7 9 12 16 20 22 21 18 14 12 10 9 9 9 11 15 19 24 27 28 29 29 29 30 30 31 32 33 33 33 31 29 25 21 17 14 12 10 10 10
15 16 16 14 13 11 11 10 9 9 9 9 8 6 6 7 6 6 7 7 7 8 9 9 6 5 5 5 5 5 6 7 8 8 8 8 9 10 11 12 13 13 12 9 6 5 6 6 5 5 4 4 4 4 4 5 6 8 10 13 18 21 21 19 15 13 12 12 14 18 23 28 31 32 31 29 27 25 23 22 22 23 24 25 27 28 29 30 31 33 33 31 29 25 23 22 20
17 16 13 11 10 9 9 9 9 9 8 7 7 5 6 8 7 7 9 8 8 9 8 6 4 4 5 6 5 6 7 8 8 9 8 9 10 10 11 11 11 12 10 6 5 5 5 5 5 4 4 4 4 4 5 5 7 9 10 14 19 21 21 18 16 16 18 23 29 33 35 34 31 29 26 25 24 22 22 21 20 20 20 19 20 20 21 21 22 24 26 29 30 31 31 31 31
14 12 9 9 9 9 9 8 8 8 6 7 7 5 7 8 6 7 8 6 6 6 5 4 3 5 6 5 5 6 7 8 8 9 9 9 10 9 10 10 11 11 10 6 5 5 4 4 4 3 4 4 4 4 4 5 7 9 11 15 20 22 21 19 19 23 29 34 35 32 29 27 26 26 27 27 27 27 26 25 23 23 23 22 22 21 21 21 20 20 19 20 21 22 23 24 25
9 8 8 8 8 8 9 7 6 6 5 6 5 4 8 9 5 7 7 4 5 5 4 4 5 6 5 5 5 6 7 9 10 10 9 9 9 9 10 11 11 12 10 6 5 4 4 4 4 4 5 5 4 4 4 6 7 9 13 17 21 22 20 20 25 31 34 31 26 24 25 26 28 28 28 27 27 27 26 25 24 24 24 24 24 24 24 24 23 22 21 20 19 18 18 18 18
Height
5825 5826 5827 5827 5827 5828 5828 5828 5829 5829 5829 5829 5829 5829 5829 5829 5829 5829 5829 5829 5829 5828 5829 5828 5828 5829 5828 5828 5828 5828 5828 5827 5826 5825 5824 5823 5823 5822 5821 5820 5820 5819 5818 5818 5818 5818 5818 5818 5817 5817 5817 5818 5818 5817 5817 5817 5816 5816 5815 5814 5813 5813 5813 5812 5811 5811 5810 5810 5810 5809 5809 5808 5808 5808 5808 5809 5809 5809 5809 5809 5809 5809 5810 5809 5808 5808 5808 5808 5809 5809 5810 5811 5811 5811 5811 5811 5812
5823 5824 5824 5825 5825 5826 5826 5826 5827 5827 5827 5826 5826 5827 5827 5827 5827 5827 5826 5826 5826 5826 5826 5826 5826 5826 5826 5826 5826 5826 5826 5825 5824 5823 5821 5821 5820 5819 5819 5818 5817 5816 5816 5816 5816 5816 5816 5816 5815 5815 5816 5816 5815 5815 5815 5814 5814 5814 5813 5812 5811 5811 5810 5809 5808 5808 5807 5807 5806 5806 5806 5805 5805 5804 5804 5804 5805 5805 5805 5805 5805 5805 5806 5805 5804 5804 5804 5804 5805 5805 5806 5807 5806 5807 5807 5807 5808
5820 5821 5822 5823 5823 5823 5824 5824 5824 5825 5825 5824 5824 5824 5824 5824 5825 5824 5823 5823 5823 5823 5823 5823 5823 5823 5823 5823 5823 5823 5823 5822 5821 5820 5819 5818 5817 5817 5816 5815 5814 5814 5813 5813 5814 5813 5813 5813 5813 5813 5813 5813 5813 5812 5812 5812 5811 5811 5810 5810 5809 5809 5808 5807 5806 5805 5804 5804 5803 5803 5802 5802 5802 5801 5801 5801 5801 5802 5802 5801 5801 5801 5801 5801 5801 5800 5800 5801 5801 5801 5802 5803 5802 5802 5803 5803 5804
5818 5819 5820 5821 5821 5821 5821 5821 5822 5822 5822 5822 5821 5821 5822 5822 5822 5821 5821 5820 5820 5820 5820 5820 5820 5821 5821 5820 5820 5820 5820 5819 5818 5817 5817 5816 5815 5814 5814 5813 5812 5811 5811 5811 5811 5810 5810 5810 5810 5810 5810 5810 5810 5809 5809 5809 5808 5808 5807 5807 5806 5805 5805 5804 5804 5803 5802 5801 5800 5799 5799 5799 5799 5798 5798 5798 5798 5798 5798 5797 5797 5797 5797 5797 5797 5796 5796 5797 5797 5797 5798 5800 5799 5798 5799 5799 5800
5816 5817 5818 5818 5819 5819 5819 5819 5819 5820 5820 5819 5819 5819 5819 5819 5819 5818 5818 5818 5817 5818 5818 5818 5817 5818 5818 5817 5817 5817 5816 5815 5815 5814 5814 5813 5812 5812 5811 5810 5810 5809 5809 5808 5808 5808 5808 5808 5808 5807 5807 5807 5807 5806 5806 5805 5805 5805 5804 5803 5803 5802 5802 5801 5800 5800 5799 5798 5797 5796 5796 5796 5796 5795 5795 5794 5794 5795 5793 5792 5793 5793 5793 5792 5793 5793 5792 5792 5792 5792 5793 5796 5797 5796 5796 5796 5795
5815 5815 5816 5816 5816 5816 5816 5816 5817 5817 5817 5817 5816 5817 5816 5816 5816 5815 5815 5815 5815 5815 5815 5815 5815 5815 5815 5814 5814 5813 5813 5812 5812 5811 5811 5810 5810 5809 5808 5808 5807 5807 5806 5806 5805 5805 5805 5805 5805 5805 5804 5804 5804 5803 5803 5802 5802 5801 5801 5800 5800 5799 5799 5798 5797 5797 5796 5795 5794 5793 5793 5792 5792 5792 5792 5790 5790 5791 5789 5788 5788 5789 5789 5789 5789 5789 5789 5789 5788 5788 5789 5791 5793 5794 5794 5792 5791
5813 5813 5813 5814 5814 5814 5814 5814 5814 5814 5814 5814 5814 5814 5814 5813 5813 5813 5812 5812 5812 5812 5812 5812 5812 5812 5811 5811 5811 5810 5810 5809 5809 5808 5808 5807 5807 5806 5806 5805 5805 5804 5804 5803 5803 5803 5803 5803 5802 5802 5802 5801 5801 5800 5800 5799 5799 5798 5798 5797 5796 5796 5796 5795 5794 5793 5793 5792 5791 5790 5789 5789 5789 5788 5788 5788 5787 5787 5786 5785 5785 5784 5785 5785 5785 5785 5785 5785 5785 5784 5785 5787 5788 5790 5790 5789 5788
5811 5811 5811 5811 5811 5811 5811 5812 5812 5812 5811 5811 5811 5811 5811 5811 5810 5810 5810 5809 5810 5810 5809 5809 5809 5808 5808 5808 5807 5807 5806 5806 5805 5805 5804 5804 5804 5803 5803 5802 5802 5801 5801 5800 5800 5800 5800 5800 5799 5799 5799 5798 5798 5798 5797 5796 5796 5795 5794 5794 5793 5793 5793 5792 5791 5790 5789 5788 5787 5786 5786 5785 5785 5784 5784 5784 5783 5782 5782 5781 5781 5780 5781 5781 5781 5781 5781 5781 5781 5781 5781 5782 5783 5785 5786 5785 5785
5809 5809 5809 5809 5809 5809 5809 5809 5809 5809 5809 5809 5809 5809 5808 5808 5808 5807 5807 5807 5807 5807 5807 5806 5806 5805 5805 5805 5805 5804 5803 5803 5802 5802 5801 5801 5801 5800 5800 5799 5798 5798 5797 5797 5797 5797 5796 5796 5796 5796 5796 5795 5795 5795 5794 5793 5793 5792 5791 5790 5790 5790 5789 5789 5788 5787 5785 5785 5784 5783 5782 5782 5781 5781 5781 5780 5778 5778 5777 5777 5776 5776 5777 5777 5776 5776 5776 5776 5777 5777 5777 5778 5778 5780 5781 5781 5780
5806 5806 5806 5806 5807 5807 5807 5807 5807 5807 5806 5806 5806 5806 5806 5806 5805 5805 5805 5804 5804 5804 5804 5804 5803 5803 5802 5802 5802 5801 5800 5800 5799 5799 5798 5798 5797 5797 5796 5796 5795 5795 5794 5794 5794 5793 5793 5792 5792 5792 5793 5793 5792 5792 5791 5790 5789 5789 5788 5787 5786 5786 5785 5785 5784 5783 5782 5781 5780 5779 5779 5778 5777 5777 5777 5776 5775 5774 5773 5772 5772 5772 5773 5772 5771 5771 5771 5771 5772 5772 5773 5773 5773 5774 5776 5775 5774
5804 5804 5804 5804 5804 5804 5804 5804 5804 5804 5804 5804 5804 5803 5803 5803 5803 5803 5802 5802 5802 5801 5801 5801 5800 5800 5800 5799 5798 5798 5797 5797 5797 5796 5796 5795 5794 5794 5793 5793 5792 5792 5791 5791 5790 5790 5789 5789 5789 5789 5789 5789 5789 5789 5787 5786 5786 5785 5784 5784 5783 5782 5781 5781 5779 5778 5778 5777 5776 5776 5776 5775 5774 5773 5773 5773 5771 5770 5769 5768 5767 5767 5768 5767 5766 5766 5766 5767 5767 5768 5768 5768 5768 5769 5769 5769 5768
5801 5801 5802 5802 5802 5802 5801 5801 5801 5802 5802 5802 5802 5801 5801 5801 5801 5800 5800 5799 5799 5799 5798 5798 5797 5797 5796 5796 5795 5794 5794 5794 5793 5793 5792 5792 5791 5791 5790 5790 5789 5789 5788 5788 5787 5787 5786 5786 5785 5785 5786 5786 5786 5785 5784 5783 5782 5781 5781 5780 5780 5779 5777 5776 5775 5774 5774 5773 5772 5772 5772 5771 5770 5769 5769 5769 5768 5766 5765 5764 5763 5763 5763 5763 5762 5761 5762 5762 5763 5764 5765 5764 5764 5764 5764 5764 5764
5799 5799 5799 5800 5800 5800 5799 5799 5799 5799 5800 5800 5799 5799 5799 5798 5798 5798 5797 5797 5796 5796 5795 5795 5794 5794 5793 5793 5792 5791 5791 5790 5790 5790 5789 5789 5788 5788 5787 5787 5786 5786 5785 5784 5784 5783 5783 5782 5782 5782 5782 5782 5782 5781 5780 5779 5778 5778 5777 5776 5776 5775 5774 5772 5771 5770 5769 5769 5768 5768 5767 5767 5766 5766 5765 5764 5764 5763 5762 5760 5759 5758 5758 5758 5757 5757 5757 5758 5758 5760 5761 5761 5760 5761 5760 5760 5760
5797 5797 5797 5797 5798 5797 5796 5796 5796 5797 5797 5798 5797 5797 5796 5796 5795 5795 5794 5794 5794 5793 5792 5792 5792 5791 5790 5789 5789 5788 5788 5787 5787 5786 5786 5786 5785 5785 5785 5784 5784 5783 5782 5781 5780 5780 5779 5779 5779 5778 5778 5778 5778 5777 5776 5775 5774 5774 5773 5772 5772 5771 5770 5768 5767 5766 5766 5765 5764 5764 5762 5762 5762 5761 5760 5760 5760 5760 5759 5757 5756 5755 5754 5754 5753 5754 5754 5753 5754 5755 5756 5756 5755 5755 5755 5755 5756
5795 5795 5795 5795 5795 5794 5794 5793 5794 5794 5795 5795 5794 5794 5793 5793 5793 5792 5792 5791 5791 5790 5790 5789 5788 5787 5787 5786 5786 5785 5785 5784 5784 5783 5783 5782 5782 5781 5781 5781 5780 5779 5779 5778 5777 5776 5776 5775 5775 5775 5774 5774 5773 5773 5772 5771 5770 5769 5769 5768 5767 5767 5766 5764 5763 5762 5762 5762 5761 5760 5758 5758 5757 5756 5756 5756 5755 5755 5755 5754 5753 5751 5750 5750 5750 5750 5750 5749 5750 5751 5751 5751 5750 5750 5751 5751 5751
5792 5792 5792 5792 5792 5791 5791 5791 5792 5792 5792 5792 5792 5791 5791 5790 5790 5789 5789 5788 5788 5787 5787 5786 5785 5784 5784 5783 5783 5782 5782 5781 5781 5780 5779 5779 5778 5778 5778 5777 5776 5776 5775 5774 5773 5773 5772 5772 5772 5771 5771 5770 5769 5768 5767 5766 5766 5765 5765 5764 5762 5762 5761 5760 5759 5758 5757 5758 5757 5756 5754 5753 5753 5752 5751 5751 5751 5751 5751 5750 5749 5748 5747 5746 5746 5746 5746 5746 5746 5746 5746 5746 5745 5745 5746 5746 5747
5789 5789 5790 5789 5789 5788 5788 5789 5790 5789 5789 5789 5789 5788 5788 5787 5787 5787 5786 5786 5785 5784 5784 5783 5782 5782 5781 5780 5780 5779 5779 5778 5778 5777 5776 5776 5775 5775 5774 5773 5773 5772 5771 5771 5770 5769 5769 5768 5768 5767 5767 5766 5765 5764 5763 5762 5761 5761 5760 5760 5758 5757 5757 5756 5754 5754 5753 5754 5753 5751 5750 5749 5748 5748 5747 5746 5747 5747 5746 5746 5745 5744 5743 5742 5741 5741 5741 5741 5742 5742 5742 5740 5740 5740 5740 5740 5741
5787 5787 5787 5786 5785 5785 5786 5787 5787 5786 5786 5786 5786 5785 5785 5785 5785 5785 5784 5783 5782 5781 5781 5780 5779 5779 5778 5777 5777 5776 5775 5775 5774 5773 5773 5772 5772 5771 5770 5770 5769 5768 5768 5767 5766 5766 5765 5765 5764 5763 5763 5762 5761 5760 5759 5758 5757 5756 5756 5756 5755 5753 5752 5752 5750 5749 5748 5749 5749 5747 5746 5745 5744 5743 5742 5741 5742 5742 5742 5741 5740 5739 5738 5737 5737 5736 5736 5736 5736 5737 5737 5736 5735 5735 5734 5734 5735
5784 5784 5784 5783 5782 5783 5784 5785 5784 5784 5783 5783 5783 5782 5782 5782 5782 5782 5781 5780 5779 5778 5778 5777 5776 5776 5775 5774 5774 5773 5772 5772 5771 5770 5769 5769 5768 5767 5767 5766 5766 5765 5764 5763 5763 5762 5762 5761 5760 5759 5758 5757 5756 5755 5755 5754 5753 5752 5752 5752 5751 5749 5748 5748 5747 5745 5744 5744 5744 5743 5742 5741 5740 5739 5738 5737 5736 5737 5737 5737 5736 5734 5733 5732 5732 5731 5731 5731 5731 5732 5732 5731 5731 5731 5730 5729 5730
5782 5781 5781 5780 5780 5781 5781 5782 5782 5782 5781 5780 5780 5779 5779 5779 5779 5778 5778 5777 5776 5775 5775 5774 5773 5773 5772 5771 5771 5770 5769 5768 5768 5767 5766 5765 5765 5764 5763 5763 5762 5761 5761 5760 5759 5758 5757 5756 5755 5754 5753 5752 5752 5751 5750 5749 5748 5748 5747 5747 5747 5746 5744 5743 5742 5741 5740 5739 5739 5738 5737 5736 5735 5734 5734 5732 5732 5732 5732 5732 5732 5730 5729 5728 5727 5727 5726 5726 5726 5727 5726 5726 5726 5726 5726 5725 5725
5779 5779 5778 5778 5778 5778 5779 5779 5779 5779 5778 5777 5777 5776 5776 5776 5775 5775 5774 5773 5773 5772 5772 5771 5770 5770 5769 5769 5768 5767 5766 5765 5764 5763 5763 5762 5761 5760 5760 5759 5758 5758 5757 5756 5755 5754 5753 5752 5750 5749 5748 5747 5747 5746 5745 5745 5744 5743 5743 5742 5742 5741 5740 5739 5738 5737 5736 5735 5735 5733 5733 5732 5731 5730 5729 5727 5727 5727 5727 5727 5727 5726 5725 5724 5723 5722 5721 5720 5721 5721 5721 5721 5720 5720 5720 5719 5719
5776 5776 5776 5775 5775 5775 5776 5776 5775 5775 5775 5774 5774 5774 5773 5773 5772 5772 5771 5771 5770 5770 5769 5768 5767 5767 5766 5765 5765 5764 5763 5762 5761 5760 5759 5759 5758 5757 5756 5755 5754 5753 5753 5751 5750 5749 5748 5747 5746 5745 5744 5743 5742 5741 5740 5740 5739 5738 5738 5737 5737 5736 5736 5734 5733 5732 5731 5730 5729 5728 5728 5727 5726 5725 5724 5723 5722 5722 5721 5721 5722 5721 5720 5720 5719 5717 5716 5715 5715 5715 5715 5715 5715 5714 5714 5713 5713
5773 5773 5773 5773 5772 5773 5773 5773 5772 5772 5771 5771 5771 5771 5770 5770 5770 5769 5769 5768 5767 5767 5765 5765 5764 5763 5763 5762 5761 5760 5759 5758 5758 5757 5756 5755 5754 5753 5752 5751 5750 5749 5748 5747 5746 5745 5744 5743 5742 5741 5740 5739 5738 5737 5736 5735 5734 5733 5733 5732 5731 5731 5730 5729 5728 5727 5726 5725 5724 5723 5722 5722 5720 5720 5719 5718 5717 5716 5716 5715 5716 5715 5715 5715 5714 5713 5711 5710 5709 5708 5708 5709 5709 5709 5708 5708 5708
5770 5770 5770 5770 5770 5770 5770 5770 5769 5769 5768 5768 5768 5768 5767 5767 5767 5766 5766 5765 5764 5763 5762 5761 5761 5760 5759 5759 5758 5757 5755 5755 5754 5753 5752 5751 5750 5749 5748 5747 5746 5745 5744 5743 5742 5740 5740 5739 5738 5737 5736 5735 5734 5733 5732 5731 5730 5729 5728 5727 5726 5725 5724 5723 5723 5722 5721 5720 5718 5717 5716 5715 5714 5714 5713 5713 5711 5710 5710 5709 5709 5709 5709 5709 5708 5708 5707 5705 5704 5703 5703 5703 5703 5703 5703 5703 5702
5767 5767 5767 5767 5767 5767 5767 5767 5766 5766 5766 5766 5765 5765 5765 5764 5763 5763 5762 5761 5760 5759 5759 5758 5758 5757 5756 5755 5753 5752 5751 5751 5750 5749 5748 5747 5746 5745 5744 5742 5741 5740 5739 5738 5737 5736 5735 5734 5733 5732 5731 5730 5729 5728 5727 5726 5725 5724 5723 5722 5721 5720 5719 5718 5717 5716 5715 5714 5713 5712 5711 5710 5708 5707 5707 5707 5706 5704 5703 5703 5703 5703 5703 5702 5702 5702 5701 5700 5699 5698 5698 5697 5697 5698 5698 5698 5698
5765 5764 5764 5764 5764 5764 5764 5764 5764 5763 5763 5763 5762 5762 5761 5761 5760 5759 5759 5757 5756 5756 5755 5754 5754 5753 5752 5750 5749 5748 5747 5746 5745 5744 5743 5742 5741 5740 5739 5737 5736 5735 5734 5733 5732 5731 5730 5729 5728 5727 5726 5725 5723 5722 5722 5721 5720 5719 5718 5717 5716 5715 5714 5713 5712 5710 5709 5708 5707 5706 5705 5704 5703 5702 5700 5700 5699 5698 5697 5696 5696 5696 5696 5696 5696 5695 5695 5694 5694 5692 5692 5692 5692 5692 5692 5693 5693
5762 5762 5762 5762 5761 5761 5761 5761 5761 5760 5760 5760 5759 5758 5758 5757 5757 5756 5755 5754 5753 5753 5751 5750 5749 5748 5747 5746 5745 5744 5743 5742 5741 5739 5738 5737 5736 5735 5734 5732 5731 5730 5729 5728 5727 5726 5725 5723 5722 5721 5720 5719 5718 5716 5715 5714 5713 5712 5711 5711 5710 5709 5708 5707 5706 5705 5703 5702 5701 5699 5698 5697 5696 5696 5695 5694 5693 5692 5691 5689 5688 5688 5688 5688 5688 5689 5689 5688 5688 5687 5686 5686 5686 5686 5685 5686 5687
5760 5760 5759 5759 5758 5758 5758 5757 5757 5757 5756 5756 5755 5754 5754 5754 5753 5752 5751 5751 5750 5749 5748 5746 5745 5744 5743 5742 5741 5740 5739 5737 5736 5734 5733 5732 5731 5730 5729 5728 5727 5725 5724 5723 5722 5720 5719 5718 5717 5715 5714 5713 5712 5710 5709 5708 5707 5706 5705 5704 5703 5702 5701 5700 5699 5698 5697 5696 5694 5693 5692 5691 5690 5689 5688 5688 5687 5686 5685 5683 5682 5681 5680 5680 5680 5681 5682 5681 5681 5680 5680 5680 5680 5680 5679 5679 5680
5757 5757 5756 5756 5755 5755 5754 5754 5754 5753 5753 5752 5751 5750 5750 5750 5749 5748 5748 5747 5746 5745 5744 5742 5741 5740 5739 5738 5737 5735 5734 5732 5731 5730 5729 5727 5726 5725 5724 5723 5722 5720 5719 5718 5716 5715 5713 5712 5711 5709 5708 5707 5705 5704 5703 5702 5701 5700 5699 5697 5696 5695 5694 5693 5692 5691 5690 5689 5687 5686 5685 5684 5683 5682 5681 5681 5680 5679 5678 5677 5676 5675 5674 5673 5672 5672 5673 5674 5673 5673 5673 5674 5674 5674 5674 5673 5673
5753 5753 5753 5752 5752 5751 5751 5750 5750 5749 5749 5748 5747 5746 5746 5746 5745 5745 5744 5743 5742 5741 5740 5739 5738 5737 5735 5734 5732 5731 5729 5727 5726 5725 5724 5722 5721 5720 5719 5717 5716 5714 5713 5711 5710 5708 5707 5706 5704 5703 5702 5700 5699 5697 5696 5695 5694 5693 5691 5690 5689 5688 5687 5686 5684 5683 5682 5681 5680 5679 5678 5676 5675 5674 5673 5673 5672 5671 5671 5670 5669 5668 5667 5667 5666 5665 5665 5665 5665 5665 5665 5666 5668 5667 5667 5667 5666
5750 5749 5749 5749 5748 5747 5747 5747 5746 5745 5745 5745 5744 5742 5742 5741 5741 5740 5739 5738 5737 5736 5736 5735 5733 5732 5731 5729 5727 5726 5724 5723 5721 5720 5719 5717 5716 5715 5713 5711 5710 5708 5707 5705 5704 5702 5701 5699 5698 5696 5695 5693 5692 5691 5689 5688 5686 5685 5684 5683 5681 5680 5679 5678 5676 5675 5674 5673 5672 5671 5670 5669 5667 5666 5665 5665 5664 5663 5663 5662 5661 5660 5660 5659 5659 5658 5657 5657 5657 5657 5657 5657 5659 5660 5660 5660 5660
5746 5745 5745 5745 5744 5744 5744 5743 5742 5742 5741 5741 5740 5738 5738 5737 5736 5735 5734 5733 5733 5732 5731 5730 5728 5727 5725 5724 5722 5721 5719 5718 5717 5715 5714 5712 5710 5709 5707 5705 5704 5702 5701 5699 5697 5696 5694 5693 5691 5689 5688 5686 5685 5683 5682 5681 5679 5678 5677 5675 5674 5672 5671 5670 5668 5667 5666 5664 5663 5662 5661 5660 5659 5658 5657 5656 5655 5654 5654 5653 5653 5652 5651 5651 5650 5650 5650 5649 5649 5649 5649 5649 5649 5651 5652 5652 5653
5743 5742 5742 5741 5741 5740 5740 5739 5739 5738 5737 5737 5736 5734 5733 5733 5732 5731 5730 5729 5728 5727 5726 5725 5723 5722 5720 5719 5717 5716 5715 5713 5711 5710 5708 5706 5704 5703 5701 5699 5698 5696 5694 5693 5691 5689 5688 5686 5684 5683 5681 5679 5678 5676 5675 5673 5672 5670 5669 5667 5666 5665 5663 5662 5660 5658 5657 5656 5654 5653 5652 5651 5650 5649 5648 5647 5646 5645 5644 5643 5643 5643 5642 5642 5641 5641 5640 5641 5641 5640 5641 5641 5641 5642 5643 5644 5645
5739 5738 5738 5738 5737 5736 5736 5735 5735 5734 5734 5733 5732 5730 5729 5728 5727 5726 5725 5724 5723 5722 5721 5720 5718 5717 5715 5714 5712 5711 5709 5707 5706 5704 5702 5700 5698 5697 5695 5693 5692 5690 5688 5686 5685 5683 5681 5679 5678 5676 5674 5672 5671 5669 5667 5665 5664 5662 5661 5659 5658 5656 5655 5653 5652 5650 5649 5647 5646 5644 5643 5642 5641 5640 5639 5638 5636 5635 5634 5633 5633 5632 5632 5632 5631 5631 5631 5631 5632 5631 5631 5632 5632 5632 5633 5634 5637
5736 5735 5734 5734 5733 5733 5732 5731 5731 5731 5730 5729 5728 5726 5725 5724 5723 5722 5721 5720 5718 5717 5716 5715 5713 5712 5710 5709 5707 5705 5703 5702 5700 5698 5696 5694 5693 5691 5689 5688 5686 5684 5682 5680 5678 5676 5675 5673 5671 5669 5667 5665 5663 5661 5659 5658 5656 5654 5653 5651 5650 5648 5646 5644 5643 5641 5640 5638 5637 5635 5634 5632 5631 5630 5629 5628 5627 5626 5625 5623 5622 5621 5620 5620 5620 5620 5620 5621 5621 5621 5621 5621 5622 5622 5623 5624 5626
5732 5731 5731 5730 5730 5729 5728 5728 5728 5727 5726 5724 5723 5722 5721 5719 5718 5717 5716 5715 5714 5712 5711 5710 5708 5707 5705 5703 5701 5700 5698 5696 5694 5692 5690 5689 5687 5685 5683 5682 5680 5678 5676 5674 5672 5670 5668 5666 5664 5662 5659 5657 5655 5653 5651 5650 5648 5646 5645 5643 5641 5640 5638 5636 5634 5632 5631 5629 5628 5626 5624 5623 5622 5620 5619 5618 5617 5616 5615 5614 5612 5611 5610 5609 5609 5608 5608 5609 5609 5610 5610 5610 5610 5610 5612 5613 5615
5728 5728 5727 5727 5726 5725 5725 5724 5724 5723 5721 5720 5719 5717 5716 5714 5713 5713 5712 5711 5709 5708 5707 5705 5703 5701 5700 5698 5696 5694 5692 5690 5688 5687 5685 5683 5681 5679 5677 5675 5673 5671 5669 5668 5666 5663 5661 5659 5657 5654 5652 5650 5647 5645 5643 5642 5640 5638 5637 5635 5633 5631 5629 5627 5625 5623 5622 5620 5618 5616 5614 5613 5612 5610 5609 5608 5607 5605 5604 5603 5602 5601 5600 5598 5598 5597 5596 5596 5596 5597 5598 5599 5599 5599 5599 5601 5603
5725 5724 5723 5723 5722 5722 5721 5720 5719 5718 5717 5715 5714 5712 5711 5710 5709 5708 5707 5706 5705 5703 5702 5700 5698 5696 5694 5692 5690 5688 5687 5685 5683 5681 5679 5677 5675 5673 5671 5669 5667 5665 5663 5661 5659 5657 5655 5652 5650 5647 5645 5642 5640 5638 5636 5634 5632 5631 5629 5627 5625 5623 5620 5618 5616 5614 5612 5610 5608 5606 5604 5602 5601 5599 5598 5597 5596 5595 5594 5593 5592 5590 5589 5588 5587 5586 5586 5585 5584 5585 5585 5586 5587 5588 5588 5589 5591
5721 5720 5720 5719 5718 5718 5717 5716 5715 5714 5712 5710 5709 5707 5706 5705 5704 5704 5702 5701 5699 5698 5696 5695 5693 5691 5689 5687 5685 5683 5681 5679 5677 5675 5673 5672 5670 5668 5665 5663 5661 5659 5657 5655 5653 5650 5648 5645 5643 5640 5638 5635 5632 5630 5628 5627 5625 5623 5620 5618 5616 5613 5611 5609 5606 5604 5602 5600 5598 5596 5594 5592 5590 5588 5587 5585 5584 5583 5582 5581 5580 5579 5578 5577 5575 5574 5574 5574 5573 5573 5573 5573 5574 5575 5576 5577 5578
5717 5717 5716 5715 5714 5713 5712 5712 5711 5710 5708 5706 5705 5703 5701 5701 5700 5699 5698 5696 5694 5693 5691 5689 5688 5686 5684 5682 5680 5678 5676 5674 5672 5670 5668 5666 5664 5662 5660 5657 5655 5653 5651 5648 5646 5644 5641 5638 5636 5633 5630 5627 5625 5623 5621 5618 5616 5614 5611 5609 5606 5604 5601 5599 5596 5594 5592 5590 5587 5585 5583 5581 5579 5577 5575 5574 5572 5571 5569 5568 5567 5567 5566 5565 5564 5562 5562 5561 5561 5561 5560 5560 5561 5562 5563 5564 5565
5713 5713 5712 5711 5710 5709 5708 5707 5706 5705 5704 5703 5701 5698 5697 5697 5696 5694 5693 5691 5690 5688 5686 5684 5682 5681 5678 5676 5674 5672 5670 5668 5666 5664 5662 5660 5658 5656 5654 5651 5649 5647 5645 5642 5640 5637 5634 5631 5628 5625 5623 5619 5617 5614 5612 5609 5607 5604 5602 5599 5597 5594 5591 5588 5586 5583 5581 5579 5576 5574 5572 5569 5567 5565 5564 5562 5560 5559 5557 5556 5555 5553 5552 5552 5551 5550 5549 5548 5548 5548 5547 5547 5547 5548 5550 5551 5552
5709 5708 5708 5707 5706 5705 5704 5703 5702 5701 5700 5698 5697 5693 5691 5692 5691 5689 5688 5687 5685 5683 5681 5679 5677 5676 5674 5671 5669 5667 5665 5663 5661 5659 5657 5655 5652 5650 5648 5645 5643 5641 5638 5635 5632 5629 5626 5623 5620 5618 5615 5611 5609 5606 5603 5600 5597 5595 5592 5589 5586 5583 5580 5578 5575 5572 5570 5567 5565 5562 5559 5557 5555 5553 5551 5549 5547 5546 5545 5544 5542 5541 5540 5539 5538 5537 5536 5535 5535 5534 5534 5534 5534 5534 5535 5537 5538
5705 5704 5703 5702 5702 5701 5700 5699 5698 5697 5695 5694 5692 5689 5686 5686 5686 5685 5683 5681 5680 5678 5676 5674 5672 5670 5668 5666 5664 5662 5660 5657 5655 5653 5651 5649 5646 5644 5641 5639 5637 5634 5631 5628 5625 5622 5619 5616 5613 5609 5606 5603 5600 5597 5594 5591 5588 5585 5582 5578 5575 5572 5569 5566 5563 5561 5558 5555 5553 5550 5548 5545 5543 5540 5538 5536 5534 5533 5531 5530 5529 5527 5526 5525 5524 5523 5522 5521 5521 5520 5520 5520 5520 5520 5521 5522 5523
5700 5700 5699 5698 5697 5696 5695 5694 5693 5692 5691 5689 5687 5685 5682 5681 5681 5680 5678 5676 5674 5673 5671 5669 5667 5665 5663 5661 5659 5657 5654 5652 5649 5647 5645 5643 5640 5638 5635 5632 5629 5627 5624 5621 5618 5615 5611 5608 5605 5601 5598 5594 5591 5588 5585 5581 5578 5575 5572 5568 5565 5562 5558 5555 5552 5549 5546 5543 5540 5538 5535 5533 5530 5527 5524 5522 5520 5518 5517 5515 5514 5513 5512 5511 5510 5509 5508 5507 5506 5505 5505 5505 5505 5506 5507 5508 5509
5696 5696 5695 5694 5693 5692 5691 5690 5689 5687 5686 5684 5682 5680 5677 5675 5675 5675 5672 5671 5669 5668 5666 5664 5662 5660 5658 5656 5653 5651 5649 5646 5644 5641 5638 5636 5633 5631 5628 5625 5622 5620 5617 5614 5611 5607 5604 5600 5596 5592 5589 5586 5582 5579 5575 5572 5569 5566 5562 5559 5556 5552 5548 5544 5541 5538 5534 5530 5527 5524 5521 5519 5517 5514 5510 5507 5505 5503 5501 5499 5498 5497 5496 5494 5494 5493 5492 5492 5491 5490 5489 5489 5489 5490 5491 5493 5494
5692 5692 5691 5690 5689 5688 5687 5685 5684 5682 5681 5679 5677 5675 5672 5670 5670 5669 5667 5666 5664 5662 5660 5658 5657 5655 5652 5650 5648 5645 5643 5640 5638 5635 5632 5629 5627 5624 5621 5618 5615 5612 5609 5606 5603 5599 5595 5592 5587 5583 5580 5577 5573 5570 5567 5563 5560 5556 5553 5549 5546 5542 5537 5533 5530 5526 5522 5517 5513 5509 5505 5502 5501 5498 5495 5492 5489 5487 5485 5483 5481 5479 5478 5477 5476 5475 5475 5474 5474 5474 5473 5473 5473 5473 5474 5476 5478
5688 5687 5686 5685 5684 5683 5682 5680 5679 5677 5675 5674 5672 5670 5667 5665 5664 5664 5662 5660 5659 5657 5655 5653 5651 5649 5647 5645 5642 5640 5637 5635 5632 5629 5626 5623 5620 5617 5614 5611 5608 5605 5601 5598 5594 5591 5587 5583 5579 5575 5571 5568 5565 5562 5558 5555 5551 5546 5542 5539 5535 5530 5526 5521 5516 5512 5508 5502 5498 5493 5488 5485 5482 5479 5477 5475 5472 5469 5467 5465 5463 5461 5460 5459 5458 5457 5456 5456 5456 5456 5456 5457 5457 5457 5458 5459 5460
5684 5683 5682 5681 5679 5678 5677 5676 5674 5672 5670 5669 5667 5664 5662 5660 5659 5659 5657 5655 5654 5652 5650 5648 5646 5644 5641 5639 5637 5634 5631 5629 5626 5623 5619 5616 5613 5610 5607 5604 5600 5597 5593 5589 5586 5582 5578 5574 5571 5567 5563 5560 5557 5553 5550 5545 5541 5536 5532 5527 5523 5518 5513 5508 5502 5498 5493 5486 5481 5476 5471 5466 5463 5460 5457 5455 5453 5451 5449 5447 5445 5444 5442 5441 5440 5439 5439 5438 5437 5437 5438 5439 5440 5441 5442 5442 5443
5680 5679 5677 5676 5674 5673 5672 5671 5669 5667 5665 5663 5661 5659 5658 5656 5655 5654 5652 5650 5649 5647 5645 5643 5641 5638 5636 5633 5631 5628 5625 5623 5620 5616 5613 5610 5606 5603 5599 5595 5592 5588 5584 5581 5577 5573 5569 5566 5562 5559 5555 5552 5548 5544 5540 5536 5530 5525 5520 5514 5509 5504 5499 5493 5487 5482 5476 5470 5463 5458 5454 5449 5444 5440 5438 5435 5433 5432 5431 5430 5428 5427 5426 5425 5423 5423 5422 5422 5421 5421 5421 5421 5422 5424 5425 5426 5427
5676 5674 5673 5672 5670 5668 5667 5666 5664 5663 5661 5659 5657 5655 5653 5652 5651 5649 5647 5645 5644 5642 5640 5638 5635 5633 5630 5627 5625 5623 5620 5617 5614 5610 5607 5603 5599 5595 5592 5588 5584 5580 5576 5572 5569 5565 5561 5557 5554 5550 5546 5542 5538 5534 5529 5524 5519 5513 5507 5501 5495 5489 5483 5478 5471 5465 5459 5453 5447 5442 5438 5434 5429 5424 5421 5418 5415 5415 5414 5414 5413 5412 5411 5410 5408 5407 5406 5405 5405 5405 5405 5406 5407 5408 5409 5410 5411
5671 5670 5668 5667 5666 5664 5663 5661 5660 5658 5657 5655 5653 5651 5649 5648 5646 5644 5643 5641 5639 5637 5635 5633 5630 5628 5625 5622 5620 5617 5614 5611 5608 5604 5601 5597 5592 5588 5584 5580 5576 5572 5568 5564 5560 5557 5553 5549 5545 5541 5537 5532 5528 5523 5518 5513 5508 5502 5495 5488 5481 5474 5468 5462 5456 5450 5444 5438 5433 5428 5423 5420 5415 5411 5407 5403 5399 5398 5397 5397 5397 5397 5396 5395 5393 5391 5390 5389 5389 5389 5390 5391 5392 5393 5394 5395 5396
5666 5665 5664 5662 5661 5660 5658 5657 5656 5654 5653 5651 5649 5647 5644 5643 5641 5640 5638 5636 5634 5632 5630 5628 5625 5623 5620 5617 5614 5611 5608 5605 5602 5598 5594 5590 5586 5581 5577 5573 5569 5565 5561 5557 5553 5549 5545 5541 5536 5532 5527 5522 5517 5512 5507 5501 5496 5490 5484 5477 5469 5462 5455 5449 5443 5437 5431 5426 5420 5415 5410 5406 5401 5396 5393 5388 5384 5381 5380 5379 5380 5380 5379 5378 5377 5376 5374 5373 5373 5373 5374 5376 5377 5378 5379 5380 5381
5662 5661 5659 5658 5657 5656 5654 5653 5652 5651 5649 5647 5645 5643 5640 5638 5637 5636 5634 5632 5630 5628 5626 5623 5620 5617 5614 5611 5608 5605 5602 5599 5595 5591 5587 5583 5579 5575 5571 5567 5562 5558 5553 5549 5544 5540 5536 5532 5527 5522 5517 5512 5507 5502 5497 5491 5485 5479 5473 5465 5458 5450 5443 5436 5430 5425 5419 5414 5409 5403 5398 5393 5388 5382 5378 5373 5368 5364 5362 5361 5360 5361 5361 5360 5360 5359 5357 5356 5356 5357 5358 5360 5361 5362 5363 5364 5365
5657 5656 5655 5654 5653 5652 5650 5649 5648 5647 5645 5644 5642 5639 5637 5634 5633 5632 5630 5627 5625 5623 5621 5618 5615 5612 5609 5606 5603 5599 5596 5592 5589 5585 5581 5577 5573 5568 5564 5559 5555 5550 5545 5540 5536 5532 5527 5523 5518 5513 5508 5503 5498 5493 5487 5481 5475 5468 5462 5454 5446 5438 5431 5425 5419 5413 5407 5402 5396 5390 5384 5379 5374 5369 5363 5359 5354 5350 5347 5345 5343 5343 5343 5343 5343 5342 5340 5339 5339 5340 5341 5343 5344 5345 5345 5347 5348
5653 5652 5651 5650 5649 5648 5647 5646 5644 5643 5641 5640 5638 5636 5633 5630 5628 5627 5625 5622 5620 5618 5616 5613 5609 5606 5603 5600 5597 5593 5590 5586 5582 5578 5574 5570 5565 5561 5556 5551 5547 5542 5537 5532 5528 5524 5520 5515 5510 5505 5500 5495 5489 5483 5477 5471 5464 5457 5450 5443 5435 5428 5421 5414 5407 5401 5394 5388 5382 5376 5369 5364 5359 5354 5350 5346 5342 5337 5334 5331 5329 5328 5328 5328 5328 5327 5325 5324 5324 5324 5325 5326 5327 5328 5328 5329 5331
5649 5648 5647 5647 5646 5644 5643 5642 5641 5639 5637 5635 5634 5633 5630 5626 5624 5622 5620 5618 5615 5613 5610 5608 5604 5601 5598 5595 5591 5587 5584 5580 5576 5571 5567 5562 5558 5553 5549 5544 5539 5535 5530 5525 5521 5517 5512 5507 5502 5497 5491 5486 5479 5473 5467 5460 5454 5446 5439 5432 5424 5416 5409 5402 5395 5387 5379 5373 5366 5360 5354 5349 5345 5341 5337 5333 5330 5326 5323 5319 5317 5315 5314 5314 5314 5314 5313 5312 5311 5311 5311 5311 5312 5312 5313 5314 5315
5646 5645 5644 5643 5642 5641 5640 5638 5637 5635 5633 5631 5629 5628 5627 5622 5619 5617 5615 5613 5611 5608 5605 5602 5599 5596 5592 5588 5584 5581 5577 5573 5568 5564 5559 5555 5551 5546 5541 5537 5532 5527 5523 5518 5514 5509 5504 5499 5493 5487 5481 5476 5470 5463 5457 5450 5443 5436 5428 5420 5412 5404 5396 5388 5381 5373 5365 5358 5352 5346 5341 5337 5333 5329 5325 5322 5319 5316 5312 5309 5307 5304 5303 5301 5301 5301 5301 5301 5300 5299 5299 5299 5298 5299 5299 5300 5301
5643 5642 5641 5640 5639 5637 5636 5635 5633 5632 5630 5628 5625 5624 5623 5618 5614 5613 5610 5608 5606 5603 5600 5597 5593 5589 5586 5582 5578 5574 5570 5566 5561 5557 5552 5548 5543 5538 5534 5529 5524 5519 5515 5511 5506 5501 5496 5490 5484 5477 5472 5466 5460 5454 5448 5440 5432 5425 5416 5407 5399 5391 5382 5374 5366 5359 5352 5345 5340 5335 5330 5326 5322 5318 5314 5311 5308 5306 5303 5300 5297 5295 5293 5291 5290 5289 5290 5290 5289 5288 5287 5287 5287 5287 5287 5287 5288